Вернуться в каталог

STARLINK-31514

АктивенСвязьVLEO
NORAD 59187·PAYLOAD·🇺🇸 United States

Запущен Mar 10, 2024 с Cape Canaveral Space Force Station

Loading…

Ближайшие Пролёты (ближайшие 24 часа)

TLE

СвежийSource: CelesTrak SupGP

Эпоха: Sep 15, 2026, 02:18 UTC

1 59187C 24045K   26258.09631944  .00043822  00000+0  15871-2 0  2584
2 59187  42.9994 102.9656 0001389 270.0171 234.7902 15.27560092    12

Отслеживайте STARLINK-31514 в реальном времени с AllMySat

Download on the App Store